23-06-2023, 00:00:02,    159,    0.0,   16.0,   0.00,   0.00, 1018.2,   98.6, -999.0
23-06-2023, 00:00:12,    159,    0.0,   16.0,   0.00,   0.00, 1018.2,   98.6, -999.0
23-06-2023, 00:00:22,    159,    0.0,   16.0,   0.00,   0.00, 1018.2,   98.7, -999.0
23-06-2023, 00:00:32,    159,    0.0,   15.9,   0.00,   0.00, 1018.2,   98.6, -999.0
23-06-2023, 00:00:42,    159,    0.0,   15.9,   0.00,   0.00, 1018.2,   98.6, -999.0
23-06-2023, 00:00:52,    159,    0.0,   16.0,   0.00,   0.00, 1018.2,   98.6, -999.0
23-06-2023, 00:01:02,    160,    0.0,   16.0,   0.00,   0.00, 1018.2,   98.6, -999.0
23-06-2023, 00:01:12,    159,    0.0,   16.0,   0.00,   0.00, 1018.2,   98.6, -999.0
23-06-2023, 00:01:22,    159,    0.0,   15.9,   0.00,   0.00, 1018.2,   98.6, -999.0
23-06-2023, 00:01:32,    159,    0.0,   15.9,   0.00,   0.00, 1018.2,   98.7, -999.0
23-06-2023, 00:01:42,    160,    0.0,   16.0,   0.00,   0.00, 1018.2,   98.7, -999.0
23-06-2023, 00:01:52,    179,    0.0,   15.9,   0.00,   0.00, 1018.2,   98.6, -999.0
23-06-2023, 00:02:02,    178,    0.0,   15.9,   0.00,   0.00, 1018.2,   98.8, -999.0
23-06-2023, 00:02:12,    179,    0.0,   15.9,   0.00,   0.00, 1018.2,   98.6, -999.0
23-06-2023, 00:02:22,    179,    0.0,   15.9,   0.00,   0.00, 1018.2,   98.6, -999.0
23-06-2023, 00:02:32,    179,    0.0,   15.9,   0.00,   0.00, 1018.2,   98.7, -999.0
23-06-2023, 00:02:42,    179,    0.0,   15.9,   0.00,   0.00, 1018.2,   98.7, -999.0
23-06-2023, 00:02:52,    179,    0.0,   15.9,   0.00,   0.00, 1018.2,   98.7, -999.0
23-06-2023, 00:03:02,    179,    0.0,   15.9,   0.00,   0.00, 1018.2,   98.6, -999.0
23-06-2023, 00:03:12,    178,    0.0,   15.9,   0.00,   0.00, 1018.2,   98.6, -999.0
23-06-2023, 00:03:22,    179,    0.0,   15.9,   0.00,   0.00, 1018.2,   98.6, -999.0
23-06-2023, 00:03:32,    179,    0.0,   15.9,   0.00,   0.00, 1018.2,   98.7, -999.0
23-06-2023, 00:03:42,    179,    0.0,   16.0,   0.00,   0.00, 1018.2,   98.7, -999.0
23-06-2023, 00:03:52,    176,    0.0,   15.9,   0.00,   0.00, 1018.2,   98.7, -999.0
23-06-2023, 00:04:01,    179,    0.0,   15.9,   0.00,   0.00, 1018.2,   98.6, -999.0
23-06-2023, 00:04:12,    179,    0.0,   15.9,   0.00,   0.00, 1018.2,   98.6, -999.0
23-06-2023, 00:04:22,    178,    0.0,   15.9,   0.00,   0.00, 1018.2,   98.7, -999.0
23-06-2023, 00:04:32,    179,    0.0,   15.9,   0.00,   0.00, 1018.2,   98.6, -999.0
23-06-2023, 00:04:41,    179,    0.0,   15.8,   0.00,   0.00, 1018.2,   98.7, -999.0
23-06-2023, 00:04:52,    179,    0.0,   15.9,   0.00,   0.00, 1018.2,   98.7, -999.0
23-06-2023, 00:05:02,    180,    0.0,   15.9,   0.00,   0.00, 1018.2,   98.6, -999.0
23-06-2023, 00:05:11,    179,    0.0,   15.9,   0.00,   0.00, 1018.2,   98.6, -999.0
23-06-2023, 00:05:21,    179,    0.0,   15.9,   0.00,   0.00, 1018.2,   98.7, -999.0
23-06-2023, 00:05:32,    190,    0.0,   15.9,   0.00,   0.00, 1018.2,   98.7, -999.0
23-06-2023, 00:05:41,    192,    0.0,   15.9,   0.00,   0.00, 1018.2,   98.6, -999.0
23-06-2023, 00:05:51,    192,    0.0,   15.9,   0.00,   0.00, 1018.2,   98.7, -999.0
23-06-2023, 00:06:01,    192,    0.0,   15.9,   0.00,   0.00, 1018.2,   98.6, -999.0
23-06-2023, 00:06:11,    191,    0.0,   15.9,   0.00,   0.00, 1018.2,   98.6, -999.0
23-06-2023, 00:06:21,    191,    0.0,   15.9,   0.00,   0.00, 1018.2,   98.6, -999.0
23-06-2023, 00:06:31,    192,    0.0,   15.9,   0.00,   0.00, 1018.2,   98.7, -999.0
23-06-2023, 00:06:41,    192,    0.0,   15.9,   0.00,   0.00, 1018.2,   98.6, -999.0
23-06-2023, 00:06:51,    192,    0.0,   15.9,   0.00,   0.00, 1018.2,   98.6, -999.0
23-06-2023, 00:07:01,    192,    0.0,   15.9,   0.00,   0.00, 1018.2,   98.7, -999.0
23-06-2023, 00:07:11,    192,    0.0,   15.8,   0.00,   0.00, 1018.2,   98.7, -999.0
23-06-2023, 00:07:21,    192,    0.0,   15.9,   0.00,   0.00, 1018.2,   98.7, -999.0
23-06-2023, 00:07:31,    191,    0.0,   15.9,   0.00,   0.00, 1018.2,   98.6, -999.0
23-06-2023, 00:07:41,    192,    0.0,   15.9,   0.00,   0.00, 1018.2,   98.6, -999.0
23-06-2023, 00:07:51,    192,    0.0,   15.8,   0.00,   0.00, 1018.2,   98.7, -999.0
23-06-2023, 00:08:01,    192,    0.0,   15.7,   0.00,   0.00, 1018.2,   98.6, -999.0
23-06-2023, 00:08:11,    192,    0.0,   15.8,   0.00,   0.00, 1018.2,   98.7, -999.0
23-06-2023, 00:08:21,    192,    0.0,   15.8,   0.00,   0.00, 1018.2,   98.7, -999.0
23-06-2023, 00:08:31,    193,    0.0,   15.9,   0.00,   0.00, 1018.2,   98.6, -999.0
23-06-2023, 00:08:41,    192,    0.0,   15.8,   0.00,   0.00, 1018.2,   98.7, -999.0
23-06-2023, 00:08:51,    192,    0.0,   15.9,   0.00,   0.00, 1018.2,   98.7, -999.0
23-06-2023, 00:09:01,    192,    0.0,   15.8,   0.00,   0.00, 1018.2,   98.7, -999.0
23-06-2023, 00:09:11,    193,    0.0,   15.8,   0.00,   0.00, 1018.2,   98.6, -999.0
23-06-2023, 00:09:21,    194,    0.0,   15.8,   0.00,   0.00, 1018.2,   98.7, -999.0
23-06-2023, 00:09:31,    192,    0.0,   15.8,   0.00,   0.00, 1018.2,   98.7, -999.0
23-06-2023, 00:09:41,    192,    0.0,   15.8,   0.00,   0.00, 1018.2,   98.7, -999.0
23-06-2023, 00:09:51,    192,    0.0,   15.9,   0.00,   0.00, 1018.2,   98.7, -999.0
23-06-2023, 00:10:01,    193,    0.0,   15.9,   0.00,   0.00, 1018.2,   98.7, -999.0
23-06-2023, 00:10:11,    193,    0.0,   15.9,   0.00,   0.00, 1018.1,   98.6, -999.0
23-06-2023, 00:10:21,    194,    0.0,   15.9,   0.00,   0.00, 1018.2,   98.6, -999.0
23-06-2023, 00:10:31,    194,    0.0,   15.9,   0.00,   0.00, 1018.2,   98.7, -999.0
23-06-2023, 00:10:41,    194,    0.0,   15.9,   0.00,   0.00, 1018.2,   98.7, -999.0
23-06-2023, 00:10:51,    194,    0.0,   15.8,   0.00,   0.00, 1018.1,   98.7, -999.0
23-06-2023, 00:11:01,    194,    0.0,   15.7,   0.00,   0.00, 1018.1,   98.6, -999.0
23-06-2023, 00:11:10,    194,    0.0,   15.7,   0.00,   0.00, 1018.1,   98.7, -999.0
23-06-2023, 00:11:21,    194,    0.0,   15.7,   0.00,   0.00, 1018.1,   98.7, -999.0
23-06-2023, 00:11:31,    194,    0.0,   15.7,   0.00,   0.00, 1018.1,   98.7, -999.0
23-06-2023, 00:11:41,    194,    0.0,   15.8,   0.00,   0.00, 1018.1,   98.7, -999.0
23-06-2023, 00:11:50,    194,    0.0,   15.7,   0.00,   0.00, 1018.1,   98.7, -999.0
23-06-2023, 00:12:01,    195,    0.0,   15.7,   0.00,   0.00, 1018.1,   98.6, -999.0
23-06-2023, 00:12:11,    194,    0.0,   15.7,   0.00,   0.00, 1018.1,   98.7, -999.0
23-06-2023, 00:12:20,    194,    0.0,   15.8,   0.00,   0.00, 1018.1,   98.7, -999.0
23-06-2023, 00:12:30,    194,    0.0,   15.9,   0.00,   0.00, 1018.1,   98.7, -999.0
23-06-2023, 00:12:41,    194,    0.0,   15.8,   0.00,   0.00, 1018.1,   98.6, -999.0
23-06-2023, 00:12:50,    194,    0.0,   15.8,   0.00,   0.00, 1018.1,   98.7, -999.0
23-06-2023, 00:13:00,    194,    0.0,   15.8,   0.00,   0.00, 1018.1,   98.7, -999.0
23-06-2023, 00:13:10,    194,    0.0,   15.9,   0.00,   0.00, 1018.1,   98.8, -999.0
23-06-2023, 00:13:20,    194,    0.0,   15.9,   0.00,   0.00, 1018.1,   98.6, -999.0
23-06-2023, 00:13:30,    194,    0.0,   15.8,   0.00,   0.00, 1018.1,   98.6, -999.0
23-06-2023, 00:13:40,    194,    0.0,   15.9,   0.00,   0.00, 1018.1,   98.6, -999.0
23-06-2023, 00:13:50,    194,    0.0,   15.9,   0.00,   0.00, 1018.1,   98.6, -999.0
23-06-2023, 00:14:00,    194,    0.0,   15.7,   0.00,   0.00, 1018.1,   98.7, -999.0
23-06-2023, 00:14:10,    194,    0.0,   15.8,   0.00,   0.00, 1018.2,   98.7, -999.0
23-06-2023, 00:14:20,    201,    0.0,   15.8,   0.00,   0.00, 1018.1,   98.7, -999.0
23-06-2023, 00:14:30,    194,    0.0,   15.8,   0.00,   0.00, 1018.1,   98.7, -999.0
23-06-2023, 00:14:40,    194,    0.0,   15.8,   0.00,   0.00, 1018.1,   98.7, -999.0
23-06-2023, 00:14:50,    194,    0.0,   15.8,   0.00,   0.00, 1018.2,   98.7, -999.0
23-06-2023, 00:15:00,    193,    0.0,   15.8,   0.00,   0.00, 1018.1,   98.7, -999.0
23-06-2023, 00:15:10,    194,    0.0,   15.8,   0.00,   0.00, 1018.2,   98.7, -999.0
23-06-2023, 00:15:20,    194,    0.0,   15.7,   0.00,   0.00, 1018.2,   98.7, -999.0
23-06-2023, 00:15:30,    194,    0.0,   15.7,   0.00,   0.00, 1018.1,   98.7, -999.0
23-06-2023, 00:15:40,    194,    0.0,   15.8,   0.00,   0.00, 1018.2,   98.6, -999.0
23-06-2023, 00:15:50,    194,    0.0,   15.8,   0.00,   0.00, 1018.2,   98.7, -999.0
23-06-2023, 00:16:00,    194,    0.0,   15.7,   0.00,   0.00, 1018.2,   98.6, -999.0
23-06-2023, 00:16:10,    194,    0.0,   15.7,   0.00,   0.00, 1018.1,   98.8, -999.0
23-06-2023, 00:16:20,    194,    0.0,   15.7,   0.00,   0.00, 1018.2,   98.7, -999.0
23-06-2023, 00:16:30,    193,    0.0,   15.7,   0.00,   0.00, 1018.2,   98.6, -999.0
23-06-2023, 00:16:40,    193,    0.0,   15.7,   0.00,   0.00, 1018.2,   98.7, -999.0
23-06-2023, 00:16:50,    194,    0.0,   15.7,   0.00,   0.00, 1018.2,   98.6, -999.0
23-06-2023, 00:17:00,    194,    0.0,   15.7,   0.00,   0.00, 1018.2,   98.7, -999.0
23-06-2023, 00:17:10,    194,    0.0,   15.7,   0.00,   0.00, 1018.2,   98.7, -999.0
23-06-2023, 00:17:20,    194,    0.0,   15.6,   0.00,   0.00, 1018.2,   98.6, -999.0
23-06-2023, 00:17:30,    194,    0.0,   15.7,   0.00,   0.00, 1018.2,   98.7, -999.0
23-06-2023, 00:17:39,    193,    0.0,   15.7,   0.00,   0.00, 1018.2,   98.7, -999.0
23-06-2023, 00:17:50,    195,    0.0,   15.7,   0.00,   0.00, 1018.2,   98.7, -999.0
23-06-2023, 00:18:00,    194,    0.0,   15.6,   0.00,   0.00, 1018.2,   98.6, -999.0
23-06-2023, 00:18:10,    194,    0.0,   15.6,   0.00,   0.00, 1018.2,   98.6, -999.0
23-06-2023, 00:18:19,    194,    0.0,   15.7,   0.00,   0.00, 1018.2,   98.6, -999.0
23-06-2023, 00:18:30,    194,    0.0,   15.6,   0.00,   0.00, 1018.2,   98.7, -999.0
23-06-2023, 00:18:40,    194,    0.0,   15.7,   0.00,   0.00, 1018.2,   98.7, -999.0
23-06-2023, 00:18:49,    194,    0.0,   15.7,   0.00,   0.00, 1018.2,   98.8, -999.0
23-06-2023, 00:18:59,    194,    0.0,   15.7,   0.00,   0.00, 1018.2,   98.6, -999.0
23-06-2023, 00:19:10,    194,    0.0,   15.6,   0.00,   0.00, 1018.2,   98.7, -999.0
23-06-2023, 00:19:19,    194,    0.0,   15.7,   0.00,   0.00, 1018.1,   98.6, -999.0
23-06-2023, 00:19:29,    193,    0.0,   15.7,   0.00,   0.00, 1018.1,   98.7, -999.0
23-06-2023, 00:19:39,    194,    0.0,   15.7,   0.00,   0.00, 1018.2,   98.6, -999.0
23-06-2023, 00:19:49,    194,    0.0,   15.7,   0.00,   0.00, 1018.2,   98.7, -999.0
23-06-2023, 00:19:59,    194,    0.0,   15.6,   0.00,   0.00, 1018.2,   98.6, -999.0
23-06-2023, 00:20:09,    193,    0.0,   15.6,   0.00,   0.00, 1018.2,   98.6, -999.0
23-06-2023, 00:20:19,    194,    0.0,   15.7,   0.00,   0.00, 1018.2,   98.6, -999.0
23-06-2023, 00:20:29,    195,    0.0,   15.6,   0.00,   0.00, 1018.1,   98.8, -999.0
23-06-2023, 00:20:39,    194,    0.0,   15.7,   0.00,   0.00, 1018.2,   98.6, -999.0
23-06-2023, 00:20:49,    194,    0.0,   15.6,   0.00,   0.00, 1018.2,   98.7, -999.0
23-06-2023, 00:20:59,    194,    0.0,   15.6,   0.00,   0.00, 1018.2,   98.6, -999.0
23-06-2023, 00:21:09,    194,    0.0,   15.6,   0.00,   0.00, 1018.2,   98.7, -999.0
23-06-2023, 00:21:19,    194,    0.0,   15.6,   0.00,   0.00, 1018.2,   98.7, -999.0
23-06-2023, 00:21:29,    195,    0.0,   15.6,   0.00,   0.00, 1018.2,   98.7, -999.0
23-06-2023, 00:21:39,    194,    0.0,   15.6,   0.00,   0.00, 1018.2,   98.6, -999.0
23-06-2023, 00:21:49,    194,    0.0,   15.6,   0.00,   0.00, 1018.2,   98.7, -999.0
23-06-2023, 00:21:59,    194,    0.0,   15.6,   0.00,   0.00, 1018.2,   98.7, -999.0
23-06-2023, 00:22:09,    194,    0.0,   15.6,   0.00,   0.00, 1018.1,   98.7, -999.0
23-06-2023, 00:22:19,    194,    0.0,   15.6,   0.00,   0.00, 1018.2,   98.7, -999.0
23-06-2023, 00:22:29,    194,    0.0,   15.6,   0.00,   0.00, 1018.2,   98.7, -999.0
23-06-2023, 00:22:39,    195,    0.0,   15.6,   0.00,   0.00, 1018.2,   98.7, -999.0
23-06-2023, 00:22:49,    195,    0.0,   15.6,   0.00,   0.00, 1018.2,   98.7, -999.0
23-06-2023, 00:22:59,    194,    0.0,   15.6,   0.00,   0.00, 1018.2,   98.6, -999.0
23-06-2023, 00:23:09,    194,    0.0,   15.7,   0.00,   0.00, 1018.2,   98.7, -999.0
23-06-2023, 00:23:19,    194,    0.0,   15.6,   0.00,   0.00, 1018.2,   98.7, -999.0
23-06-2023, 00:23:29,    194,    0.0,   15.6,   0.00,   0.00, 1018.2,   98.6, -999.0
23-06-2023, 00:23:39,    197,    0.0,   15.5,   0.00,   0.00, 1018.2,   98.7, -999.0
23-06-2023, 00:23:49,    197,    0.0,   15.7,   0.00,   0.00, 1018.2,   98.7, -999.0
23-06-2023, 00:23:59,    197,    0.0,   15.6,   0.00,   0.00, 1018.2,   98.7, -999.0
23-06-2023, 00:24:09,    197,    0.0,   15.6,   0.00,   0.00, 1018.2,   98.7, -999.0
23-06-2023, 00:24:19,    197,    0.0,   15.6,   0.00,   0.00, 1018.2,   98.6, -999.0
23-06-2023, 00:24:28,    197,    0.0,   15.6,   0.00,   0.00, 1018.2,   98.6, -999.0
23-06-2023, 00:24:39,    197,    0.0,   15.6,   0.00,   0.00, 1018.2,   98.6, -999.0
23-06-2023, 00:24:49,    197,    0.0,   15.6,   0.00,   0.00, 1018.2,   98.6, -999.0
23-06-2023, 00:24:58,    197,    0.0,   15.6,   0.00,   0.00, 1018.2,   98.7, -999.0
23-06-2023, 00:25:09,    197,    0.0,   15.6,   0.00,   0.00, 1018.2,   98.7, -999.0
23-06-2023, 00:25:19,    197,    0.0,   15.5,   0.00,   0.00, 1018.2,   98.6, -999.0
23-06-2023, 00:25:29,    197,    0.0,   15.6,   0.00,   0.00, 1018.2,   98.6, -999.0
23-06-2023, 00:25:38,    198,    0.0,   15.7,   0.00,   0.00, 1018.2,   98.7, -999.0
23-06-2023, 00:25:49,    197,    0.0,   15.6,   0.00,   0.00, 1018.2,   98.6, -999.0
23-06-2023, 00:25:59,    197,    0.0,   15.6,   0.00,   0.00, 1018.2,   98.6, -999.0
23-06-2023, 00:26:08,    197,    0.0,   15.6,   0.00,   0.00, 1018.2,   98.7, -999.0
23-06-2023, 00:26:18,    197,    0.0,   15.6,   0.00,   0.00, 1018.2,   98.7, -999.0
23-06-2023, 00:26:29,    197,    0.0,   15.6,   0.00,   0.00, 1018.2,   98.7, -999.0
23-06-2023, 00:26:38,    197,    0.0,   15.7,   0.00,   0.00, 1018.1,   98.7, -999.0
23-06-2023, 00:26:48,    197,    0.0,   15.6,   0.00,   0.00, 1018.2,   98.7, -999.0
23-06-2023, 00:26:58,    198,    0.0,   15.6,   0.00,   0.00, 1018.2,   98.7, -999.0
23-06-2023, 00:27:08,    197,    0.0,   15.6,   0.00,   0.00, 1018.2,   98.7, -999.0
23-06-2023, 00:27:18,    197,    0.0,   15.5,   0.00,   0.00, 1018.1,   98.7, -999.0
23-06-2023, 00:27:28,    197,    0.0,   15.6,   0.00,   0.00, 1018.2,   98.7, -999.0
23-06-2023, 00:27:38,    197,    0.0,   15.6,   0.00,   0.00, 1018.1,   98.6, -999.0
23-06-2023, 00:27:48,    197,    0.0,   15.6,   0.00,   0.00, 1018.1,   98.6, -999.0
23-06-2023, 00:27:58,    197,    0.0,   15.6,   0.00,   0.00, 1018.1,   98.7, -999.0
23-06-2023, 00:28:08,    197,    0.0,   15.6,   0.00,   0.00, 1018.1,   98.7, -999.0
23-06-2023, 00:28:18,    196,    0.0,   15.6,   0.00,   0.00, 1018.1,   98.6, -999.0
23-06-2023, 00:28:28,    197,    0.0,   15.6,   0.00,   0.00, 1018.1,   98.7, -999.0
23-06-2023, 00:28:38,    197,    0.0,   15.6,   0.00,   0.00, 1018.1,   98.7, -999.0
23-06-2023, 00:28:48,    197,    0.0,   15.6,   0.00,   0.00, 1018.1,   98.6, -999.0
23-06-2023, 00:28:58,    197,    0.0,   15.5,   0.00,   0.00, 1018.1,   98.6, -999.0
23-06-2023, 00:29:08,    197,    0.0,   15.6,   0.00,   0.00, 1018.1,   98.6, -999.0
23-06-2023, 00:29:18,    197,    0.0,   15.6,   0.00,   0.00, 1018.1,   98.6, -999.0
23-06-2023, 00:29:28,    197,    0.0,   15.6,   0.00,   0.00, 1018.1,   98.7, -999.0
23-06-2023, 00:29:38,    197,    0.0,   15.6,   0.00,   0.00, 1018.1,   98.6, -999.0
23-06-2023, 00:29:48,    197,    0.0,   15.7,   0.00,   0.00, 1018.1,   98.7, -999.0
23-06-2023, 00:29:58,    197,    0.0,   15.6,   0.00,   0.00, 1018.1,   98.7, -999.0
23-06-2023, 00:30:08,    197,    0.0,   15.6,   0.00,   0.00, 1018.1,   98.7, -999.0
23-06-2023, 00:30:18,    197,    0.0,   15.6,   0.00,   0.00, 1018.1,   98.7, -999.0
23-06-2023, 00:30:28,    197,    0.0,   15.5,   0.00,   0.00, 1018.1,   98.7, -999.0
23-06-2023, 00:30:38,    198,    0.0,   15.5,   0.00,   0.00, 1018.1,   98.6, -999.0
23-06-2023, 00:30:48,    198,    0.0,   15.4,   0.00,   0.00, 1018.1,   98.6, -999.0
23-06-2023, 00:30:57,    198,    0.0,   15.5,   0.00,   0.00, 1018.1,   98.7, -999.0
23-06-2023, 00:31:08,    198,    0.0,   15.5,   0.00,   0.00, 1018.1,   98.6, -999.0
23-06-2023, 00:31:18,    198,    0.0,   15.5,   0.00,   0.00, 1018.1,   98.6, -999.0
23-06-2023, 00:31:28,    198,    0.0,   15.5,   0.00,   0.00, 1018.1,   98.7, -999.0
23-06-2023, 00:31:37,    198,    0.0,   15.5,   0.00,   0.00, 1018.1,   98.7, -999.0
23-06-2023, 00:31:48,    198,    0.0,   15.5,   0.00,   0.00, 1018.1,   98.6, -999.0
23-06-2023, 00:31:58,    198,    0.0,   15.5,   0.00,   0.00, 1018.1,   98.6, -999.0
23-06-2023, 00:32:07,    198,    0.0,   15.5,   0.00,   0.00, 1018.1,   98.6, -999.0
23-06-2023, 00:32:18,    198,    0.0,   15.5,   0.00,   0.00, 1018.1,   98.6, -999.0
23-06-2023, 00:32:28,    199,    0.0,   15.5,   0.00,   0.00, 1018.1,   98.7, -999.0
23-06-2023, 00:32:37,    198,    0.0,   15.5,   0.00,   0.00, 1018.1,   98.6, -999.0
23-06-2023, 00:32:47,    198,    0.0,   15.5,   0.00,   0.00, 1018.1,   98.7, -999.0
23-06-2023, 00:32:58,    198,    0.0,   15.5,   0.00,   0.00, 1018.1,   98.7, -999.0
23-06-2023, 00:33:08,    198,    0.0,   15.5,   0.00,   0.00, 1018.2,   98.7, -999.0
23-06-2023, 00:33:17,    198,    0.0,   15.5,   0.00,   0.00, 1018.1,   98.6, -999.0
23-06-2023, 00:33:28,    198,    0.0,   15.6,   0.00,   0.00, 1018.2,   98.5, -999.0
23-06-2023, 00:33:37,    198,    0.0,   15.5,   0.00,   0.00, 1018.2,   98.5, -999.0
23-06-2023, 00:33:47,    198,    0.0,   15.6,   0.00,   0.00, 1018.2,   98.7, -999.0
23-06-2023, 00:33:57,    198,    0.0,   15.5,   0.00,   0.00, 1018.2,   98.7, -999.0
23-06-2023, 00:34:07,    198,    0.0,   15.5,   0.00,   0.00, 1018.2,   98.6, -999.0
23-06-2023, 00:34:17,    196,    0.0,   15.5,   0.00,   0.00, 1018.2,   98.6, -999.0
23-06-2023, 00:34:27,    198,    0.0,   15.5,   0.00,   0.00, 1018.2,   98.8, -999.0
23-06-2023, 00:34:37,    198,    0.0,   15.4,   0.00,   0.00, 1018.2,   98.7, -999.0
23-06-2023, 00:34:47,    198,    0.0,   15.3,   0.00,   0.00, 1018.2,   98.6, -999.0
23-06-2023, 00:34:57,    198,    0.0,   15.5,   0.00,   0.00, 1018.2,   98.6, -999.0
23-06-2023, 00:35:07,    198,    0.0,   15.5,   0.00,   0.00, 1018.2,   98.7, -999.0
23-06-2023, 00:35:17,    198,    0.0,   15.4,   0.00,   0.00, 1018.2,   98.6, -999.0
23-06-2023, 00:35:27,    198,    0.0,   15.5,   0.00,   0.00, 1018.2,   98.6, -999.0
23-06-2023, 00:35:37,    201,    0.0,   15.4,   0.00,   0.00, 1018.2,   98.7, -999.0
23-06-2023, 00:35:47,    200,    0.0,   15.4,   0.00,   0.00, 1018.2,   98.6, -999.0
23-06-2023, 00:35:57,    200,    0.0,   15.3,   0.00,   0.00, 1018.2,   98.7, -999.0
23-06-2023, 00:36:07,    203,    0.0,   15.4,   0.00,   0.00, 1018.2,   98.7, -999.0
23-06-2023, 00:36:17,    203,    0.0,   15.4,   0.00,   0.00, 1018.2,   98.6, -999.0
23-06-2023, 00:36:27,    202,    0.0,   15.4,   0.00,   0.00, 1018.2,   98.6, -999.0
23-06-2023, 00:36:37,    202,    0.0,   15.4,   0.00,   0.00, 1018.2,   98.6, -999.0
23-06-2023, 00:36:47,    202,    0.0,   15.4,   0.00,   0.00, 1018.2,   98.6, -999.0
23-06-2023, 00:36:57,    202,    0.0,   15.3,   0.00,   0.00, 1018.2,   98.6, -999.0
23-06-2023, 00:37:07,    202,    0.0,   15.4,   0.00,   0.00, 1018.2,   98.7, -999.0
23-06-2023, 00:37:17,    203,    0.0,   15.4,   0.00,   0.00, 1018.2,   98.7, -999.0
23-06-2023, 00:37:27,    202,    0.0,   15.4,   0.00,   0.00, 1018.2,   98.7, -999.0
23-06-2023, 00:37:37,    202,    0.0,   15.3,   0.00,   0.00, 1018.2,   98.7, -999.0
23-06-2023, 00:37:47,    203,    0.0,   15.4,   0.00,   0.00, 1018.2,   98.6, -999.0
23-06-2023, 00:37:57,    203,    0.0,   15.3,   0.00,   0.00, 1018.2,   98.7, -999.0
23-06-2023, 00:38:07,    203,    0.0,   15.3,   0.00,   0.00, 1018.2,   98.7, -999.0
23-06-2023, 00:38:17,    203,    0.0,   15.3,   0.00,   0.00, 1018.2,   98.6, -999.0
23-06-2023, 00:38:27,    202,    0.0,   15.3,   0.00,   0.00, 1018.2,   98.6, -999.0
23-06-2023, 00:38:37,    202,    0.0,   15.3,   0.00,   0.00, 1018.2,   98.5, -999.0
23-06-2023, 00:38:46,    202,    0.0,   15.3,   0.00,   0.00, 1018.2,   98.6, -999.0
23-06-2023, 00:38:57,    203,    0.0,   15.3,   0.00,   0.00, 1018.2,   98.6, -999.0
23-06-2023, 00:39:07,    202,    0.0,   15.4,   0.00,   0.00, 1018.2,   98.6, -999.0
23-06-2023, 00:39:16,    202,    0.0,   15.3,   0.00,   0.00, 1018.2,   98.6, -999.0
23-06-2023, 00:39:27,    203,    0.0,   15.3,   0.00,   0.00, 1018.2,   98.6, -999.0
23-06-2023, 00:39:37,    203,    0.0,   15.3,   0.00,   0.00, 1018.2,   98.6, -999.0
23-06-2023, 00:39:47,    203,    0.0,   15.3,   0.00,   0.00, 1018.2,   98.7, -999.0
23-06-2023, 00:39:56,    203,    0.0,   15.3,   0.00,   0.00, 1018.2,   98.7, -999.0
23-06-2023, 00:40:06,    203,    0.0,   15.3,   0.00,   0.00, 1018.2,   98.5, -999.0
23-06-2023, 00:40:16,    203,    0.0,   15.3,   0.00,   0.00, 1018.2,   98.6, -999.0
23-06-2023, 00:40:26,    203,    0.0,   15.3,   0.00,   0.00, 1018.2,   98.8, -999.0
23-06-2023, 00:40:36,    203,    0.0,   15.2,   0.00,   0.00, 1018.2,   98.6, -999.0
23-06-2023, 00:40:46,    202,    0.0,   15.2,   0.00,   0.00, 1018.2,   98.6, -999.0
23-06-2023, 00:40:56,    203,    0.0,   15.3,   0.00,   0.00, 1018.2,   98.7, -999.0
23-06-2023, 00:41:06,    202,    0.0,   15.3,   0.00,   0.00, 1018.2,   98.7, -999.0
23-06-2023, 00:41:16,    202,    0.0,   15.3,   0.00,   0.00, 1018.1,   98.6, -999.0
23-06-2023, 00:41:26,    203,    0.0,   15.3,   0.00,   0.00, 1018.1,   98.6, -999.0
23-06-2023, 00:41:36,    203,    0.0,   15.3,   0.00,   0.00, 1018.1,   98.6, -999.0
23-06-2023, 00:41:46,    203,    0.0,   15.3,   0.00,   0.00, 1018.2,   98.6, -999.0
23-06-2023, 00:41:56,    202,    0.0,   15.3,   0.00,   0.00, 1018.2,   98.7, -999.0
23-06-2023, 00:42:06,    203,    0.0,   15.3,   0.00,   0.00, 1018.2,   98.7, -999.0
23-06-2023, 00:42:16,    204,    0.0,   15.3,   0.00,   0.00, 1018.2,   98.7, -999.0
23-06-2023, 00:42:26,    204,    0.0,   15.3,   0.00,   0.00, 1018.1,   98.7, -999.0
23-06-2023, 00:42:36,    205,    0.0,   15.3,   0.00,   0.00, 1018.1,   98.7, -999.0
23-06-2023, 00:42:46,    204,    0.0,   15.3,   0.00,   0.00, 1018.2,   98.6, -999.0
23-06-2023, 00:42:56,    204,    0.0,   15.3,   0.00,   0.00, 1018.1,   98.6, -999.0
23-06-2023, 00:43:06,    204,    0.0,   15.3,   0.00,   0.00, 1018.1,   98.7, -999.0
23-06-2023, 00:43:16,    204,    0.0,   15.3,   0.00,   0.00, 1018.1,   98.6, -999.0
23-06-2023, 00:43:26,    204,    0.0,   15.3,   0.00,   0.00, 1018.1,   98.7, -999.0
23-06-2023, 00:43:36,    204,    0.0,   15.3,   0.00,   0.00, 1018.2,   98.6, -999.0
23-06-2023, 00:43:46,    204,    0.0,   15.3,   0.00,   0.00, 1018.1,   98.6, -999.0
23-06-2023, 00:43:56,    204,    0.0,   15.3,   0.00,   0.00, 1018.1,   98.7, -999.0
23-06-2023, 00:44:06,    204,    0.0,   15.3,   0.00,   0.00, 1018.2,   98.7, -999.0
23-06-2023, 00:44:16,    204,    0.0,   15.3,   0.00,   0.00, 1018.1,   98.7, -999.0
23-06-2023, 00:44:26,    204,    0.0,   15.3,   0.00,   0.00, 1018.1,   98.7, -999.0
23-06-2023, 00:44:36,    204,    0.0,   15.3,   0.00,   0.00, 1018.1,   98.6, -999.0
23-06-2023, 00:44:46,    206,    0.0,   15.2,   0.00,   0.00, 1018.1,   98.8, -999.0
23-06-2023, 00:44:55,    206,    0.0,   15.3,   0.00,   0.00, 1018.2,   98.6, -999.0
23-06-2023, 00:45:06,    206,    0.0,   15.3,   0.00,   0.00, 1018.2,   98.6, -999.0
23-06-2023, 00:45:16,    206,    0.0,   15.3,   0.00,   0.00, 1018.2,   98.6, -999.0
23-06-2023, 00:45:25,    206,    0.0,   15.3,   0.00,   0.00, 1018.1,   98.6, -999.0
23-06-2023, 00:45:36,    206,    0.0,   15.3,   0.00,   0.00, 1018.1,   98.7, -999.0
23-06-2023, 00:45:46,    207,    0.0,   15.2,   0.00,   0.00, 1018.2,   98.6, -999.0
23-06-2023, 00:45:56,    207,    0.0,   15.2,   0.00,   0.00, 1018.2,   98.6, -999.0
23-06-2023, 00:46:05,    206,    0.0,   15.2,   0.00,   0.00, 1018.1,   98.5, -999.0
23-06-2023, 00:46:16,    206,    0.0,   15.2,   0.00,   0.00, 1018.1,   98.7, -999.0
23-06-2023, 00:46:26,    202,    0.0,   15.2,   0.00,   0.00, 1018.1,   98.7, -999.0
23-06-2023, 00:46:35,    199,    0.0,   15.1,   0.00,   0.00, 1018.2,   98.6, -999.0
23-06-2023, 00:46:45,    199,    0.0,   15.2,   0.00,   0.00, 1018.1,   98.6, -999.0